STARLINK-33802

Last updated on Thu Jul 03 2025 00:02:07 GMT+0000 (Coordinated Universal Time)

1 64392U 25127Y 25183.58335648 -.01564438 00000+0 -18771-1 0 9999 2 64392 43.0000 155.3421 0001396 277.5367 346.5611 15.63125710 4258
UTC large
Height (km)
Speed (km/s)
/
Latitude / Longitude
Inclination (degrees)
Orbital Period (minutes)
Azimuth
Elevation
Range (km)
Doppler Factor

Next 0 passes for location: London (51.5072 / 0.1276)

Sorry there are no passes over London.